Hourly Data Report for October 03, 2020

OTTAWA INTL A
ONTARIO
Current Station Operator: NAVCAN

45°19'00.000" N
75°40'00.000" W
114.90 m
6106001
71628
YOW

Download Data

Hourly Data (October 2020)
Hourly Data Report for October 3, 2020
TIME Temp Definition
°C
Dew Point Definition
°C
Rel Hum Definition
%
Wind Dir Definition
10's deg

Wind Spd Definition
km/h
Visibility Definition
km
Stn Press Definition
kPa
Hmdx Definition


Wind Chill Definition


Weather Definition


00:00 4.9 3.4 90 36 2 24.1 100.51     LegendNANA
01:00 4.9 4.4 96 33 9 24.1 100.56     Mostly Cloudy
02:00 4.8 4.0 95 28 5 24.1 100.59     LegendNANA
03:00 5.0 4.6 97 32 8 24.1 100.60     LegendNANA
04:00 5.5 4.0 90 32 7 24.1 100.64     Mostly Cloudy
05:00 5.0 3.5 90 33 9 24.1 100.71     LegendNANA
06:00 4.7 3.1 89 1 10 24.1 100.72     LegendNANA
07:00 4.7 4.0 95 13 3 24.1 100.79     Mostly Cloudy
08:00 6.4 4.3 86 34 5 24.1 100.84     LegendNANA
09:00 7.3 4.5 83 5 5 24.1 100.88     LegendNANA
10:00 8.0 4.9 81 36 2 24.1 100.92     Mostly Cloudy
11:00 8.6 4.9 77 19 4 24.1 100.95     LegendNANA
12:00 9.8 3.9 67 24 5 24.1 100.94     LegendNANA
13:00 10.8 3.2 59 12 5 24.1 100.89     Mostly Cloudy
14:00 11.5 2.9 55 26 11 24.1 100.87     LegendNANA
15:00 11.6 1.7 50 29 11 24.1 100.87     LegendNANA
16:00 10.7 2.5 57 26 9 24.1 100.90     Mostly Cloudy
17:00 10.2 3.6 63 27 7 24.1 100.91     LegendNANA
18:00 8.4 3.8 73 25 6 24.1 100.93     LegendNANA
19:00 7.5 3.8 77 26 8 24.1 100.98     Mainly Clear
20:00 5.9 3.7 86 36 3 24.1 101.02     LegendNANA
21:00 5.3 4.1 92 18 7 24.1 101.04     LegendNANA
22:00 3.8 2.8 94 18 7 24.1 101.05     Mostly Cloudy
23:00 3.8 2.5 92 16 5 24.1 101.05     LegendNANA

Notes on Data Quality.

Legend

  • E = Estimated
  • M = Missing
  • NA = Not Available*
  • [empty] = Indicates an unobserved value
Date modified: